EW0943 Weather Reports


time (UTC)temp
C
wind
direction
speed
KPH
gust
KPH
rain 1hr
cm
rain 24hr
cm
rain mn
cm
humidity
%
barometer
mb
20260503185033 17 247 6.4 38.6 0.00 0.00 0.00 44 1006.1
20260503184503 17 140 12.9 38.6 0.00 0.00 0.00 44 1006.1
20260503184003 17 233 9.7 45.1 0.00 0.00 0.00 44 1006.3
20260503183503 17 231 16.1 45.1 0.00 0.00 0.00 45 1006.3
20260503183004 17 207 22.5 43.5 0.00 0.00 0.00 44 1006.4
20260503182503 17 211 32.2 40.2 0.00 0.00 0.00 44 1006.6
20260503182003 17 264 25.7 40.2 0.00 0.00 0.00 45 1006.6
20260503181504 17 236 35.4 51.5 0.00 0.00 0.00 46 1006.7
20260503181004 16 165 22.5 51.5 0.00 0.00 0.00 46 1006.9
20260503180503 16 209 9.7 41.8 0.00 0.00 0.00 46 1006.9
20260503180033 16 225 19.3 41.8 0.00 0.00 0.00 46 1006.9
20260503175518 16 238 22.5 41.8 0.00 0.00 0.00 47 1006.9
20260503175003 16 245 24.1 41.8 0.00 0.00 0.00 47 1007.1
20260503174503 16 243 22.5 33.8 0.00 0.00 0.00 47 1007.2
20260503174003 16 212 19.3 37.0 0.00 0.00 0.00 48 1007.3
20260503173503 16 194 16.1 45.1 0.00 0.00 0.00 48 1007.3
20260503173003 16 229 25.7 45.1 0.00 0.00 0.00 47 1007.3
20260503172504 16 281 19.3 37.0 0.00 0.00 0.00 48 1007.3
20260503172003 15 191 8.0 40.2 0.00 0.00 0.00 50 1007.5
20260503171503 15 236 9.7 40.2 0.00 0.00 0.00 54 1007.7
20260503171003 15 236 29.0 40.2 0.00 0.00 0.00 53 1007.6
20260503170503 14 257 32.2 43.5 0.00 0.00 0.00 55 1007.8
20260503151003 13 242 8.0 30.6 0.00 0.00 0.00 52 1008.7
20260503150503 13 242 17.7 30.6 0.00 0.00 0.00 52 1008.7
20260503131003 11 224 16.1 32.2 0.00 0.00 0.00 54 1009.6
20260503130503 11 235 4.8 32.2 0.00 0.00 0.00 54 1009.7
20260503110503 10 210 11.3 11.3 0.00 0.00 0.00 49 1010.2
20260503090503 10 241 4.8 30.6 0.00 0.00 0.00 48 1010.8
20260503081502 10 233 20.9 30.6 0.00 0.00 0.00 49 1011.5
20260503081002 10 245 8.0 19.3 0.00 0.00 0.00 50 1011.6
20260503080503 10 203 11.3 22.5 0.00 0.00 0.00 50 1011.6
20260503072517 10 222 17.7 24.1 0.00 0.00 0.00 47 1011.9
20260503072002 10 240 17.7 24.1 0.00 0.00 0.00 47 1011.9
20260503071503 10 242 11.3 20.9 0.00 0.00 0.00 47 1011.8
20260503071002 10 224 14.5 22.5 0.00 0.00 0.00 47 1011.9
20260503070502 10 257 17.7 22.5 0.00 0.00 0.00 47 1012.0
20260503055003 10 236 8.0 20.9 0.00 0.00 0.00 48 1012.7
20260503054502 10 248 6.4 20.9 0.00 0.00 0.00 48 1012.7
20260503054002 10 233 4.8 19.3 0.00 0.00 0.00 48 1012.7
20260503053502 10 232 11.3 19.3 0.00 0.00 0.00 48 1012.8
20260503053002 10 250 8.0 19.3 0.00 0.00 0.00 48 1012.8
20260503052502 10 232 11.3 19.3 0.00 0.00 0.00 49 1012.9
20260503052018 9 266 11.3 20.9 0.00 0.00 0.00 50 1012.8
20260503051502 8 228 8.0 20.9 0.00 0.00 0.00 52 1013.0
20260503051002 7 208 8.0 17.7 0.00 0.00 0.00 56 1012.8
20260503050502 6 239 4.8 9.7 0.00 0.00 0.00 61 1012.8
20260503050032 6 233 1.6 4.8 0.00 0.00 0.00 65 1012.8
20260503045517 5 210 0.0 3.2 0.00 0.00 0.00 67 1012.8
20260503045002 5 205 0.0 3.2 0.00 0.00 0.00 68 1012.8
20260503044517 5 205 0.0 4.8 0.00 0.00 0.00 69 1012.8
20260503044002 5 187 0.0 4.8 0.00 0.00 0.00 70 1012.8
20260503043502 5 208 0.0 3.2 0.00 0.00 0.00 70 1012.8
20260503043017 5 199 0.0 3.2 0.00 0.00 0.00 71 1012.9
20260503042502 5 180 0.0 1.6 0.00 0.00 0.00 72 1013.0
20260503042002 5 162 0.0 1.6 0.00 0.00 0.00 72 1013.0
20260503041502 5 200 0.0 0.0 0.00 0.00 0.00 71 1013.1
20260503041002 5 187 0.0 0.0 0.00 0.00 0.00 70 1013.1
20260503040502 5 190 0.0 1.6 0.00 0.00 0.00 70 1013.2
20260503040017 5 166 0.0 1.6 0.00 0.00 0.00 70 1013.2
20260503035502 5 198 0.0 1.6 0.00 0.00 0.00 70 1013.3
20260503035002 5 239 0.0 1.6 0.00 0.00 0.00 69 1013.3
20260503034502 5 225 0.0 1.6 0.00 0.00 0.00 69 1013.4
20260503034002 5 236 0.0 1.6 0.00 0.00 0.00 69 1013.4
20260503033502 5 225 1.6 1.6 0.00 0.00 0.00 69 1013.5
20260503033002 5 217 0.0 3.2 0.00 0.00 0.00 68 1013.4
20260503032502 5 221 0.0 3.2 0.00 0.00 0.00 68 1013.5
20260503032002 6 215 0.0 3.2 0.00 0.00 0.00 68 1013.6
20260503031502 6 245 0.0 3.2 0.00 0.00 0.00 67 1013.6
20260503031002 6 214 0.0 3.2 0.00 0.00 0.00 67 1013.6
20260503030502 6 204 0.0 3.2 0.00 0.00 0.00 66 1013.7
20260503030002 6 212 0.0 3.2 0.00 0.00 0.00 66 1013.7
20260503025502 6 188 0.0 1.6 0.00 0.00 0.00 66 1013.7
20260503025002 6 190 0.0 1.6 0.00 0.00 0.00 65 1013.8
20260503024502 6 221 0.0 3.2 0.00 0.00 0.00 65 1013.8
20260503024002 6 212 1.6 3.2 0.00 0.00 0.00 65 1013.8
20260503023502 6 218 0.0 6.4 0.00 0.00 0.00 64 1013.8
20260503023002 6 217 0.0 6.4 0.00 0.00 0.00 64 1013.8
20260503022502 6 175 1.6 3.2 0.00 0.00 0.00 64 1013.8
20260503022002 6 192 1.6 3.2 0.00 0.00 0.00 64 1013.8
20260503021502 6 214 0.0 1.6 0.00 0.00 0.00 63 1013.8
20260503021002 6 181 0.0 1.6 0.00 0.00 0.00 63 1013.8
20260503020502 6 240 0.0 4.8 0.00 0.00 0.00 63 1013.8
20260503020032 7 188 0.0 4.8 0.00 0.00 0.00 63 1013.8
20260503015502 7 143 3.2 4.8 0.00 0.00 0.00 63 1013.7
20260503015002 7 239 0.0 3.2 0.00 0.00 0.00 62 1013.7
20260503014502 7 183 1.6 3.2 0.00 0.00 0.00 62 1013.7
20260503014002 7 249 0.0 4.8 0.00 0.00 0.00 62 1013.6
20260503013502 7 194 1.6 4.8 0.00 0.00 0.00 61 1013.6
20260503013002 7 158 0.0 6.4 0.00 0.00 0.00 61 1013.6
20260503012502 7 193 0.0 8.0 0.00 0.00 0.00 61 1013.6
20260503012002 8 224 0.0 8.0 0.00 0.00 0.00 60 1013.6
20260503011503 8 172 3.2 11.3 0.00 0.00 0.00 60 1013.7
20260503011002 8 124 3.2 12.9 0.00 0.00 0.00 59 1013.7
20260503010502 8 137 9.7 12.9 0.00 0.00 0.00 59 1013.7
20260503010017 8 134 3.2 11.3 0.00 0.00 0.00 58 1013.7
20260503005502 8 146 3.2 11.3 0.00 0.00 0.00 58 1013.6
20260503005002 9 143 8.0 14.5 0.00 0.00 0.00 57 1013.7
20260503004502 9 120 8.0 14.5 0.00 0.00 0.00 56 1013.7
20260503004002 9 146 4.8 11.3 0.00 0.00 0.00 56 1013.7
20260503003517 10 152 4.8 14.5 0.00 0.00 0.00 55 1013.8
20260503003002 10 120 4.8 16.1 0.00 0.00 0.00 54 1013.8
20260503002517 10 193 6.4 16.1 0.00 0.00 0.00 54 1013.7
20260503002002 10 149 1.6 14.5 0.00 0.00 0.00 53 1013.8
20260503001517 10 131 6.4 14.5 0.00 0.00 0.00 52 1013.8
20260503001002 11 129 11.3 19.3 0.00 0.00 0.00 51 1013.8
20260503000502 11 113 4.8 19.3 0.00 0.00 0.00 51 1013.8
20260503000002 11 146 6.4 16.1 0.00 0.00 0.00 51 1013.8
20260502235502 11 108 6.4 12.9 0.00 0.00 0.00 51 1013.7
20260502235002 10 115 3.2 17.7 0.00 0.00 0.00 52 1013.7
20260502234502 10 137 6.4 17.7 0.00 0.00 0.00 51 1013.7
20260502234002 10 103 9.7 14.5 0.00 0.00 0.00 51 1013.7
20260502233502 10 132 9.7 12.9 0.00 0.00 0.00 52 1013.7
20260502233002 10 127 8.0 12.9 0.00 0.00 0.00 52 1013.9
20260502232502 10 110 3.2 12.9 0.00 0.00 0.00 51 1013.9
20260502232017 10 143 1.6 14.5 0.00 0.00 0.00 51 1014.0
20260502231502 10 127 9.7 17.7 0.00 0.00 0.00 50 1014.0
20260502231032 10 139 6.4 17.7 0.00 0.00 0.00 49 1014.1
20260502230602 11 138 4.8 17.7 0.00 0.00 0.00 47 1014.2
20260502230017 11 124 11.3 17.7 0.00 0.00 0.00 47 1014.2
20260502225502 11 144 6.4 16.1 0.00 0.00 0.00 49 1013.9
20260502225002 11 127 9.7 17.7 0.00 0.00 0.00 50 1014.0
20260502224502 11 132 8.0 17.7 0.00 0.00 0.00 48 1014.1
20260502224017 11 128 8.0 14.5 0.00 0.00 0.00 48 1014.1
20260502223502 11 114 8.0 16.1 0.00 0.00 0.00 49 1014.2
20260502223017 10 128 8.0 19.3 0.00 0.00 0.00 49 1014.1
20260502222502 11 115 9.7 19.3 0.00 0.00 0.00 49 1014.2
20260502222002 11 115 11.3 16.1 0.00 0.00 0.00 48 1014.3
20260502221502 11 117 8.0 16.1 0.00 0.00 0.00 47 1014.3
20260502221002 11 115 3.2 16.1 0.00 0.00 0.00 48 1014.4
20260502220502 11 108 6.4 16.1 0.00 0.00 0.00 46 1014.5
20260502220002 11 136 4.8 17.7 0.00 0.00 0.00 47 1014.5
20260502215502 11 143 6.4 17.7 0.00 0.00 0.00 46 1014.5
20260502215017 11 129 6.4 16.1 0.00 0.00 0.00 45 1014.5
20260502214502 12 105 8.0 12.9 0.00 0.00 0.00 43 1014.6
20260502214002 12 179 4.8 12.9 0.00 0.00 0.00 42 1014.7
20260502213502 12 143 4.8 12.9 0.00 0.00 0.00 42 1014.7
20260502213002 13 90 9.7 16.1 0.00 0.00 0.00 44 1014.8
20260502212502 13 219 4.8 16.1 0.00 0.00 0.00 41 1014.8
20260502212002 13 139 12.9 12.9 0.00 0.00 0.00 44 1014.9
20260502211502 12 201 3.2 11.3 0.00 0.00 0.00 44 1015.0
20260502211002 12 210 4.8 14.5 0.00 0.00 0.00 44 1014.9
20260502210502 12 129 11.3 14.5 0.00 0.00 0.00 41 1014.8
20260502210002 13 138 6.4 12.9 0.00 0.00 0.00 37 1015.0
20260502205532 13 228 1.6 14.5 0.00 0.00 0.00 36 1015.1
20260502205017 13 239 3.2 14.5 0.00 0.00 0.00 35 1015.1
20260502204502 13 225 8.0 11.3 0.00 0.00 0.00 36 1015.1
20260502204017 12 251 3.2 16.1 0.00 0.00 0.00 35 1015.3
20260502203517 13 214 9.7 19.3 0.00 0.00 0.00 34 1015.4
20260502203017 13 214 8.0 19.3 0.00 0.00 0.00 34 1015.4
20260502202502 13 290 8.0 17.7 0.00 0.00 0.00 34 1015.5
20260502202017 13 284 6.4 8.0 0.00 0.00 0.00 34 1015.6
20260502201502 13 159 1.6 11.3 0.00 0.00 0.00 36 1015.6
20260502201017 12 280 3.2 12.9 0.00 0.00 0.00 36 1015.7
20260502200502 13 295 4.8 12.9 0.00 0.00 0.00 34 1015.8
20260502200002 13 218 8.0 11.3 0.00 0.00 0.00 33 1015.9
20260502195501 13 338 1.6 12.9 0.00 0.00 0.00 34 1016.1
20260502195002 13 273 1.6 12.9 0.00 0.00 0.00 34 1016.1
20260502194502 13 321 3.2 19.3 0.00 0.00 0.00 34 1016.1
20260502194001 13 325 4.8 19.3 0.00 0.00 0.00 33 1016.3
20260502193502 13 270 12.9 16.1 0.00 0.00 0.00 35 1016.3
20260502193017 13 293 3.2 16.1 0.00 0.00 0.00 35 1016.5
20260502192502 12 326 3.2 17.7 0.00 0.00 0.00 33 1016.5
20260502192002 12 293 9.7 17.7 0.00 0.00 0.00 32 1016.6
20260502191502 13 285 17.7 17.7 0.00 0.00 0.00 33 1016.7
20260502191016 12 353 1.6 16.1 0.00 0.00 0.00 36 1016.7
20260502190517 12 309 11.3 16.1 0.00 0.00 0.00 32 1016.8
20260502190032 13 319 4.8 19.3 0.00 0.00 0.00 32 1016.9
20260502185502 13 325 4.8 20.9 0.00 0.00 0.00 34 1017.1